Time,TemperatureF,DewpointF,PressureIn,WindDirection,WindDirectionDegrees,WindSpeedMPH,WindSpeedGustMPH,Humidity,HourlyPrecipIn,Conditions,Clouds,dailyrainin,SoftwareType,DateUTC
2013-10-14 00:02:00,34.0,32.0,-100.00,SW,235,9.0,22.0,92,0.02,,,0.11,,2013-10-14 08:02:00,
2013-10-14 00:12:00,34.0,32.0,-100.00,SW,235,9.0,22.0,92,0.02,,,0.11,,2013-10-14 08:12:00,
2013-10-14 00:21:00,35.0,33.0,-100.00,WSW,240,9.0,17.0,92,0.02,,,0.12,,2013-10-14 08:21:00,
2013-10-14 00:32:00,35.0,33.0,-100.00,WSW,240,9.0,17.0,92,0.02,,,0.12,,2013-10-14 08:32:00,
2013-10-14 00:42:00,35.0,33.0,-100.00,WSW,240,9.0,17.0,92,0.02,,,0.12,,2013-10-14 08:42:00,
2013-10-14 00:52:00,35.0,33.0,-100.00,WSW,240,6.0,14.0,92,0.00,,,0.12,,2013-10-14 08:52:00,
2013-10-14 01:01:00,35.0,33.0,-100.00,WSW,240,6.0,14.0,92,0.00,,,0.12,,2013-10-14 09:01:00,
2013-10-14 01:11:00,35.0,33.0,-100.00,WSW,240,6.0,14.0,92,0.00,,,0.12,,2013-10-14 09:11:00,
2013-10-14 01:22:00,35.0,33.0,-100.00,South,185,4.0,15.0,92,0.00,,,0.12,,2013-10-14 09:22:00,
2013-10-14 01:33:00,35.0,33.0,-100.00,South,185,4.0,15.0,92,0.00,,,0.12,,2013-10-14 09:33:00,
2013-10-14 01:43:00,35.0,33.0,-100.00,South,185,4.0,15.0,92,0.00,,,0.12,,2013-10-14 09:43:00,
2013-10-14 01:53:00,35.0,33.0,-100.00,SW,225,4.0,15.0,92,0.00,,,0.12,,2013-10-14 09:53:00,
2013-10-14 02:03:00,35.0,33.0,-100.00,SW,225,4.0,15.0,92,0.00,,,0.12,,2013-10-14 10:03:00,
2013-10-14 02:12:00,35.0,33.0,-100.00,SW,225,4.0,15.0,92,0.00,,,0.12,,2013-10-14 10:12:00,
2013-10-14 02:22:00,35.0,33.0,-100.00,SW,230,6.0,15.0,92,0.00,,,0.12,,2013-10-14 10:22:00,
2013-10-14 02:32:00,35.0,33.0,-100.00,SW,230,6.0,15.0,92,0.00,,,0.12,,2013-10-14 10:32:00,
2013-10-14 02:42:00,35.0,33.0,-100.00,SW,230,6.0,15.0,92,0.00,,,0.12,,2013-10-14 10:42:00,
2013-10-14 02:53:00,35.0,33.0,-100.00,SW,230,7.0,13.0,92,0.00,,,0.12,,2013-10-14 10:53:00,
2013-10-14 03:02:00,35.0,33.0,-100.00,SW,230,7.0,13.0,92,0.00,,,0.12,,2013-10-14 11:02:00,
2013-10-14 03:11:00,35.0,33.0,-100.00,SW,230,7.0,13.0,92,0.00,,,0.12,,2013-10-14 11:11:00,
2013-10-14 03:22:00,35.0,31.0,-100.00,SW,215,4.0,14.0,86,0.00,,,0.12,,2013-10-14 11:22:00,
2013-10-14 03:32:00,35.0,31.0,-100.00,SW,215,4.0,14.0,86,0.00,,,0.12,,2013-10-14 11:32:00,
2013-10-14 03:42:00,35.0,31.0,-100.00,SW,215,4.0,14.0,86,0.00,,,0.12,,2013-10-14 11:42:00,
2013-10-14 03:52:00,36.0,31.0,-100.00,West,260,6.0,12.0,82,0.00,,,0.12,,2013-10-14 11:52:00,
2013-10-14 04:02:00,36.0,31.0,-100.00,West,260,6.0,12.0,82,0.00,,,0.12,,2013-10-14 12:02:00,
2013-10-14 04:12:00,36.0,31.0,-100.00,West,260,6.0,12.0,82,0.00,,,0.12,,2013-10-14 12:12:00,
2013-10-14 04:22:00,37.0,29.0,-100.00,West,270,8.0,15.0,71,0.00,,,0.12,,2013-10-14 12:22:00,
2013-10-14 04:32:00,37.0,29.0,-100.00,West,270,8.0,15.0,71,0.00,,,0.12,,2013-10-14 12:32:00,
2013-10-14 04:42:00,37.0,29.0,-100.00,West,270,8.0,15.0,71,0.00,,,0.12,,2013-10-14 12:42:00,
2013-10-14 04:52:00,37.0,28.0,-100.00,SW,235,4.0,13.0,70,0.00,,,0.12,,2013-10-14 12:52:00,
2013-10-14 05:02:00,37.0,28.0,-100.00,SW,235,4.0,13.0,70,0.00,,,0.12,,2013-10-14 13:02:00,
2013-10-14 05:11:00,37.0,28.0,-100.00,SW,235,4.0,13.0,70,0.00,,,0.12,,2013-10-14 13:11:00,
2013-10-14 05:21:00,37.0,27.0,-100.00,SW,220,3.0,10.0,67,0.00,,,0.12,,2013-10-14 13:21:00,
2013-10-14 05:32:00,37.0,27.0,-100.00,SW,220,3.0,10.0,67,0.00,,,0.12,,2013-10-14 13:32:00,
2013-10-14 05:42:00,37.0,27.0,-100.00,SW,220,3.0,10.0,67,0.00,,,0.12,,2013-10-14 13:42:00,
2013-10-14 05:52:00,36.0,27.0,-100.00,SW,220,4.0,11.0,68,0.00,,,0.12,,2013-10-14 13:52:00,
2013-10-14 06:02:00,36.0,27.0,-100.00,SW,220,4.0,11.0,68,0.00,,,0.12,,2013-10-14 14:02:00,
2013-10-14 06:11:00,36.0,27.0,-100.00,SW,220,4.0,11.0,68,0.00,,,0.12,,2013-10-14 14:11:00,
2013-10-14 06:22:00,36.0,28.0,-100.00,SSW,200,4.0,10.0,73,0.00,,,0.12,,2013-10-14 14:22:00,
2013-10-14 06:32:00,36.0,28.0,-100.00,SSW,200,4.0,10.0,73,0.00,,,0.12,,2013-10-14 14:32:00,
2013-10-14 06:42:00,36.0,28.0,-100.00,SSW,200,4.0,10.0,73,0.00,,,0.12,,2013-10-14 14:42:00,
2013-10-14 06:52:00,35.0,28.0,-100.00,SSW,195,4.0,9.0,74,0.00,,,0.12,,2013-10-14 14:52:00,
2013-10-14 07:01:00,35.0,28.0,-100.00,SSW,195,4.0,9.0,74,0.00,,,0.12,,2013-10-14 15:01:00,
2013-10-14 07:11:00,35.0,28.0,-100.00,SSW,195,4.0,9.0,74,0.00,,,0.12,,2013-10-14 15:11:00,
2013-10-14 07:21:00,35.0,28.0,-100.00,South,185,4.0,7.0,74,0.00,,,0.12,,2013-10-14 15:21:00,
2013-10-14 07:33:00,35.0,28.0,-100.00,South,185,4.0,7.0,74,0.00,,,0.12,,2013-10-14 15:33:00,
2013-10-14 07:44:00,35.0,28.0,-100.00,South,185,4.0,7.0,74,0.00,,,0.12,,2013-10-14 15:44:00,
2013-10-14 07:54:00,35.0,28.0,-100.00,SSW,205,4.0,7.0,75,0.00,,,0.12,,2013-10-14 15:54:00,
2013-10-14 08:03:00,35.0,28.0,-100.00,SSW,205,4.0,7.0,75,0.00,,,0.12,,2013-10-14 16:03:00,
2013-10-14 08:13:00,35.0,28.0,-100.00,SSW,205,4.0,7.0,75,0.00,,,0.12,,2013-10-14 16:13:00,
2013-10-14 08:23:00,35.0,29.0,-100.00,South,170,2.0,6.0,79,0.00,,,0.12,,2013-10-14 16:23:00,
2013-10-14 08:32:00,35.0,29.0,-100.00,South,170,2.0,6.0,79,0.00,,,0.12,,2013-10-14 16:32:00,
2013-10-14 08:42:00,35.0,29.0,-100.00,South,170,2.0,6.0,79,0.00,,,0.12,,2013-10-14 16:42:00,
2013-10-14 08:53:00,35.0,29.0,-100.00,South,185,2.0,6.0,76,0.00,,,0.12,,2013-10-14 16:53:00,
2013-10-14 09:02:00,35.0,29.0,-100.00,South,185,2.0,6.0,76,0.00,,,0.12,,2013-10-14 17:02:00,
2013-10-14 09:11:00,35.0,29.0,-100.00,South,185,2.0,6.0,76,0.00,,,0.12,,2013-10-14 17:11:00,
2013-10-14 09:22:00,35.0,28.0,-100.00,South,185,1.0,7.0,75,0.00,,,0.12,,2013-10-14 17:22:00,
2013-10-14 09:33:00,35.0,28.0,-100.00,South,185,1.0,7.0,75,0.00,,,0.12,,2013-10-14 17:33:00,
2013-10-14 09:42:00,35.0,28.0,-100.00,South,185,1.0,7.0,75,0.00,,,0.12,,2013-10-14 17:42:00,
2013-10-14 09:52:00,35.0,28.0,-100.00,South,170,2.0,6.0,73,0.00,,,0.12,,2013-10-14 17:52:00,
2013-10-14 10:01:00,35.0,28.0,-100.00,South,170,2.0,6.0,73,0.00,,,0.12,,2013-10-14 18:01:00,
2013-10-14 10:12:00,35.0,28.0,-100.00,South,170,2.0,6.0,73,0.00,,,0.12,,2013-10-14 18:12:00,
2013-10-14 10:22:00,36.0,28.0,-100.00,SE,145,4.0,10.0,73,0.00,,,0.12,,2013-10-14 18:22:00,
2013-10-14 10:32:00,36.0,28.0,-100.00,SE,145,4.0,10.0,73,0.00,,,0.12,,2013-10-14 18:32:00,
2013-10-14 10:42:00,36.0,28.0,-100.00,SE,145,4.0,10.0,73,0.00,,,0.12,,2013-10-14 18:42:00,
2013-10-14 10:52:00,35.0,28.0,-100.00,SSE,150,6.0,8.0,74,0.00,,,0.12,,2013-10-14 18:52:00,
2013-10-14 11:02:00,35.0,28.0,-100.00,SSE,150,6.0,8.0,74,0.00,,,0.12,,2013-10-14 19:02:00,
2013-10-14 11:11:00,35.0,28.0,-100.00,SSE,150,6.0,8.0,74,0.00,,,0.12,,2013-10-14 19:11:00,
2013-10-14 11:21:00,35.0,28.0,-100.00,SSE,155,4.0,7.0,75,0.00,,,0.12,,2013-10-14 19:21:00,
2013-10-14 11:32:00,35.0,28.0,-100.00,SSE,155,4.0,7.0,75,0.00,,,0.12,,2013-10-14 19:32:00,
2013-10-14 11:42:00,35.0,28.0,-100.00,SSE,155,4.0,7.0,75,0.00,,,0.12,,2013-10-14 19:42:00,
2013-10-14 11:52:00,35.0,29.0,-100.00,SSE,160,4.0,6.0,78,0.00,,,0.12,,2013-10-14 19:52:00,
2013-10-14 12:02:00,35.0,29.0,-100.00,SSE,160,4.0,6.0,78,0.00,,,0.12,,2013-10-14 20:02:00,
2013-10-14 12:11:00,35.0,29.0,-100.00,SSE,160,4.0,6.0,78,0.00,,,0.12,,2013-10-14 20:11:00,
2013-10-14 12:22:00,38.0,29.0,-100.00,SW,215,3.0,6.0,68,0.00,,,0.12,,2013-10-14 20:22:00,
2013-10-14 12:32:00,38.0,29.0,-100.00,SW,215,3.0,6.0,68,0.00,,,0.12,,2013-10-14 20:32:00,
2013-10-14 12:42:00,38.0,29.0,-100.00,SW,215,3.0,6.0,68,0.00,,,0.12,,2013-10-14 20:42:00,
2013-10-14 12:52:00,38.0,29.0,-100.00,West,280,4.0,9.0,70,0.00,,,0.12,,2013-10-14 20:52:00,
2013-10-14 13:02:00,38.0,29.0,-100.00,West,280,4.0,9.0,70,0.00,,,0.12,,2013-10-14 21:02:00,
2013-10-14 13:12:00,38.0,29.0,-100.00,West,280,4.0,9.0,70,0.00,,,0.12,,2013-10-14 21:12:00,
2013-10-14 13:21:00,38.0,28.0,-100.00,West,270,5.0,11.0,66,0.00,,,0.12,,2013-10-14 21:21:00,
2013-10-14 13:34:00,38.0,28.0,-100.00,West,270,5.0,11.0,66,0.00,,,0.12,,2013-10-14 21:34:00,
2013-10-14 13:44:00,38.0,28.0,-100.00,West,270,5.0,11.0,66,0.00,,,0.12,,2013-10-14 21:44:00,
2013-10-14 13:54:00,39.0,28.0,-100.00,WSW,255,7.0,13.0,64,0.00,,,0.12,,2013-10-14 21:54:00,
2013-10-14 14:04:00,39.0,28.0,-100.00,WSW,255,7.0,13.0,64,0.00,,,0.12,,2013-10-14 22:04:00,
2013-10-14 14:13:00,39.0,28.0,-100.00,WSW,255,7.0,13.0,64,0.00,,,0.12,,2013-10-14 22:13:00,
2013-10-14 14:24:00,39.0,28.0,-100.00,SW,230,6.0,11.0,64,0.00,,,0.12,,2013-10-14 22:24:00,
2013-10-14 14:32:00,39.0,28.0,-100.00,SW,230,6.0,11.0,64,0.00,,,0.12,,2013-10-14 22:32:00,
2013-10-14 14:43:00,39.0,28.0,-100.00,SW,230,6.0,11.0,64,0.00,,,0.12,,2013-10-14 22:43:00,
2013-10-14 14:54:00,40.0,29.0,-100.00,WSW,245,4.0,11.0,65,0.00,,,0.12,,2013-10-14 22:54:00,
2013-10-14 15:03:00,40.0,29.0,-100.00,WSW,245,4.0,11.0,65,0.00,,,0.12,,2013-10-14 23:03:00,
2013-10-14 15:12:00,40.0,29.0,-100.00,WSW,245,4.0,11.0,65,0.00,,,0.12,,2013-10-14 23:12:00,
2013-10-14 15:22:00,40.0,30.0,-100.00,SW,235,2.0,14.0,65,0.00,,,0.12,,2013-10-14 23:22:00,
2013-10-14 15:34:00,40.0,30.0,-100.00,SW,235,2.0,14.0,65,0.00,,,0.12,,2013-10-14 23:34:00,
2013-10-14 15:42:00,40.0,30.0,-100.00,SW,235,2.0,14.0,65,0.00,,,0.12,,2013-10-14 23:42:00,
2013-10-14 15:52:00,42.0,31.0,-100.00,SW,225,4.0,12.0,64,0.00,,,0.12,,2013-10-14 23:52:00,
2013-10-14 16:02:00,42.0,31.0,-100.00,SW,225,4.0,12.0,64,0.00,,,0.12,,2013-10-15 00:02:00,
2013-10-14 16:11:00,42.0,31.0,-100.00,SW,225,4.0,12.0,64,0.00,,,0.12,,2013-10-15 00:11:00,
2013-10-14 16:22:00,41.0,30.0,-100.00,West,270,8.0,13.0,64,0.00,,,0.12,,2013-10-15 00:22:00,
2013-10-14 16:32:00,41.0,30.0,-100.00,West,270,8.0,13.0,64,0.00,,,0.12,,2013-10-15 00:32:00,
2013-10-14 16:42:00,41.0,30.0,-100.00,West,270,8.0,13.0,64,0.00,,,0.12,,2013-10-15 00:42:00,
2013-10-14 16:52:00,41.0,30.0,-100.00,West,260,6.0,11.0,64,0.00,,,0.12,,2013-10-15 00:52:00,
2013-10-14 17:02:00,41.0,30.0,-100.00,West,260,6.0,11.0,64,0.00,,,0.12,,2013-10-15 01:02:00,
2013-10-14 17:11:00,41.0,30.0,-100.00,West,260,6.0,11.0,64,0.00,,,0.12,,2013-10-15 01:11:00,
2013-10-14 17:21:00,41.0,30.0,-100.00,West,260,5.0,9.0,63,0.00,,,0.12,,2013-10-15 01:21:00,
2013-10-14 17:32:00,41.0,30.0,-100.00,West,260,5.0,9.0,63,0.00,,,0.12,,2013-10-15 01:32:00,
2013-10-14 17:42:00,41.0,30.0,-100.00,West,260,5.0,9.0,63,0.00,,,0.12,,2013-10-15 01:42:00,
2013-10-14 17:52:00,41.0,29.0,-100.00,WNW,290,7.0,12.0,62,0.00,,,0.12,,2013-10-15 01:52:00,
2013-10-14 18:02:00,41.0,29.0,-100.00,WNW,290,7.0,12.0,62,0.00,,,0.12,,2013-10-15 02:02:00,
2013-10-14 18:12:00,41.0,29.0,-100.00,WNW,290,7.0,12.0,62,0.00,,,0.12,,2013-10-15 02:12:00,
2013-10-14 18:22:00,40.0,28.0,-100.00,West,270,7.0,12.0,61,0.00,,,0.12,,2013-10-15 02:22:00,
2013-10-14 18:32:00,40.0,28.0,-100.00,West,270,7.0,12.0,61,0.00,,,0.12,,2013-10-15 02:32:00,
2013-10-14 18:42:00,40.0,28.0,-100.00,West,270,7.0,12.0,61,0.00,,,0.12,,2013-10-15 02:42:00,
2013-10-14 18:52:00,40.0,28.0,-100.00,WNW,285,6.0,12.0,62,0.00,,,0.12,,2013-10-15 02:52:00,
2013-10-14 19:02:00,40.0,28.0,-100.00,WNW,285,6.0,12.0,62,0.00,,,0.12,,2013-10-15 03:02:00,
2013-10-14 19:12:00,40.0,28.0,-100.00,WNW,285,6.0,12.0,62,0.00,,,0.12,,2013-10-15 03:12:00,
2013-10-14 19:22:00,40.0,28.0,-100.00,West,275,9.0,14.0,61,0.00,,,0.12,,2013-10-15 03:22:00,
2013-10-14 19:34:00,40.0,28.0,-100.00,West,275,9.0,14.0,61,0.00,,,0.12,,2013-10-15 03:34:00,
2013-10-14 19:44:00,40.0,28.0,-100.00,West,275,9.0,14.0,61,0.00,,,0.12,,2013-10-15 03:44:00,
2013-10-14 19:54:00,40.0,27.0,-100.00,West,280,7.0,10.0,60,0.00,,,0.11,,2013-10-15 03:54:00,
2013-10-14 20:04:00,40.0,27.0,-100.00,West,280,7.0,10.0,60,0.00,,,0.11,,2013-10-15 04:04:00,
2013-10-14 20:14:00,40.0,27.0,-100.00,West,280,7.0,10.0,60,0.00,,,0.11,,2013-10-15 04:14:00,
2013-10-14 20:24:00,40.0,27.0,-100.00,West,270,6.0,10.0,60,0.00,,,0.09,,2013-10-15 04:24:00,
2013-10-14 20:34:00,40.0,27.0,-100.00,West,270,6.0,10.0,60,0.00,,,0.09,,2013-10-15 04:34:00,
2013-10-14 20:43:00,40.0,27.0,-100.00,West,270,6.0,10.0,60,0.00,,,0.09,,2013-10-15 04:43:00,
2013-10-14 20:54:00,40.0,27.0,-100.00,West,265,4.0,10.0,59,0.00,,,0.08,,2013-10-15 04:54:00,
2013-10-14 21:03:00,40.0,27.0,-100.00,West,265,4.0,10.0,59,0.00,,,0.08,,2013-10-15 05:03:00,
2013-10-14 21:13:00,40.0,27.0,-100.00,West,265,4.0,10.0,59,0.00,,,0.08,,2013-10-15 05:13:00,
2013-10-14 21:22:00,40.0,27.0,-100.00,WSW,240,4.0,7.0,60,0.00,,,0.06,,2013-10-15 05:22:00,
2013-10-14 21:34:00,40.0,27.0,-100.00,WSW,240,4.0,7.0,60,0.00,,,0.06,,2013-10-15 05:34:00,
2013-10-14 21:42:00,40.0,27.0,-100.00,WSW,240,4.0,7.0,60,0.00,,,0.06,,2013-10-15 05:42:00,
2013-10-14 21:52:00,39.0,28.0,-100.00,SSW,210,2.0,6.0,62,0.00,,,0.06,,2013-10-15 05:52:00,
2013-10-14 22:02:00,39.0,28.0,-100.00,SSW,210,2.0,6.0,62,0.00,,,0.06,,2013-10-15 06:02:00,
2013-10-14 22:12:00,39.0,28.0,-100.00,SSW,210,2.0,6.0,62,0.00,,,0.06,,2013-10-15 06:12:00,
2013-10-14 22:22:00,39.0,28.0,-100.00,SSE,160,2.0,4.0,64,0.00,,,0.04,,2013-10-15 06:22:00,
2013-10-14 22:32:00,39.0,28.0,-100.00,SSE,160,2.0,4.0,64,0.00,,,0.04,,2013-10-15 06:32:00,
2013-10-14 22:43:00,39.0,28.0,-100.00,SSE,160,2.0,4.0,64,0.00,,,0.04,,2013-10-15 06:43:00,
2013-10-14 22:52:00,39.0,29.0,-100.00,SSE,150,1.0,1.0,66,0.00,,,0.03,,2013-10-15 06:52:00,
2013-10-14 23:02:00,39.0,29.0,-100.00,SSE,150,1.0,1.0,66,0.00,,,0.03,,2013-10-15 07:02:00,
2013-10-14 23:12:00,39.0,29.0,-100.00,SSE,150,1.0,1.0,66,0.00,,,0.03,,2013-10-15 07:12:00,
2013-10-14 23:21:00,39.0,29.0,-100.00,South,170,0.0,1.0,66,0.00,,,0.02,,2013-10-15 07:21:00,
2013-10-14 23:32:00,39.0,29.0,-100.00,South,170,0.0,1.0,66,0.00,,,0.02,,2013-10-15 07:32:00,
2013-10-14 23:42:00,39.0,29.0,-100.00,South,170,0.0,1.0,66,0.00,,,0.02,,2013-10-15 07:42:00,
2013-10-14 23:52:00,39.0,29.0,-100.00,ESE,115,3.0,4.0,66,0.00,,,0.00,,2013-10-15 07:52:00,